Location: Caltech
(34.1382°N, 118.1253°W)
Time: 21:58:32
(UTC-08:00)

RS-15 - Visible Passes

Search period start: 27 February 2017 00:00
Search period end: 09 March 2017 00:00
Orbit: 1881 x 2163 km, 64.8° (Epoch: 26 February)

Date Brightness Start Highest point End Pass type
(mag) Time Alt. Az. Time Alt. Az. Time Alt. Az.
27 Feb 9.4 01:37:02 10° NNW 01:59:33 14° SE 02:00:44 10° SE visible
27 Feb 9.1 04:07:27 22° SSW 04:07:27 22° SSW 04:11:06 10° SSW visible
27 Feb 9.2 18:07:12 10° WSW 18:18:24 44° NW 18:30:01 10° NNE visible
27 Feb 10.0 20:29:08 10° NW 20:35:36 15° NNW 20:42:08 10° NNE visible
27 Feb 9.8 22:49:03 10° NNW 22:55:56 16° NNE 22:58:05 15° NNE visible
28 Feb 9.4 01:01:04 10° NNW 01:26:21 - SE 01:05:48 26° N visible
28 Feb 9.4 03:34:14 17° S 03:34:14 17° S 03:36:13 10° S visible
28 Feb 10.0 19:50:36 10° WNW 19:58:13 18° NNW 20:05:58 10° NNE visible
28 Feb 9.9 22:12:42 10° NNW 22:18:27 14° NNE 22:22:59 11° NE visible
01 Mar 9.4 00:25:09 10° NNW 00:30:43 26° N 00:30:43 26° N visible
01 Mar 9.8 02:37:30 10° NW 03:00:52 10° S 03:00:55 10° S visible
01 Mar 9.9 19:12:17 10° W 19:21:01 22° NNW 19:29:56 10° NNE visible
01 Mar 10.0 21:35:55 10° NNW 21:40:50 13° N 21:45:44 10° NNE visible
01 Mar 9.5 23:49:13 10° NNW 23:55:41 26° NNE 23:55:41 26° NNE visible
02 Mar 9.6 02:01:18 10° NNW 02:27:22 - SSE 02:03:24 17° NNW visible
02 Mar 9.8 18:34:20 10° W 18:44:02 27° NW 18:54:00 10° NNE visible
02 Mar 10.0 20:58:26 10° NNW 21:03:10 13° N 21:07:54 10° NNE visible
02 Mar 9.5 23:13:17 10° NNW 23:20:40 23° NNE 23:20:40 23° NNE visible
03 Mar 9.5 01:25:12 10° NNW 01:28:24 22° NNW 01:28:24 22° NNW visible
03 Mar 9.6 17:56:44 10° WSW 18:07:13 34° NW 18:18:05 10° NNE visible
03 Mar 10.0 20:20:14 10° NW 20:25:31 13° N 20:30:49 10° NNE visible
03 Mar 9.6 22:37:18 10° NNW 22:45:35 20° NNE 22:45:42 20° NNE visible
04 Mar 9.4 00:49:10 10° NNW 00:53:25 25° NNW 00:53:25 25° NNW visible
04 Mar 10.0 19:41:40 10° NW 19:47:58 15° NNW 19:54:19 10° NNE visible
04 Mar 9.7 22:01:13 10° NNW 22:08:17 16° NNE 22:10:44 15° NE visible
05 Mar 9.4 00:13:13 10° NNW 00:18:28 28° N 00:18:28 28° N visible
05 Mar 9.9 02:26:05 10° NW 02:26:12 10° NW 02:26:12 10° NW visible
05 Mar 9.9 19:03:06 10° WNW 19:10:34 18° NNW 19:18:07 10° NNE visible
05 Mar 9.8 21:24:56 10° NNW 21:30:49 14° NNE 21:35:49 11° NE visible
05 Mar 9.3 23:37:17 10° NNW 23:43:33 29° N 23:43:33 29° N visible
06 Mar 9.7 01:49:41 10° NW 01:51:17 15° NW 01:51:17 15° NW visible
06 Mar 9.9 18:24:45 10° WNW 18:33:20 21° NNW 18:42:05 10° NNE visible
06 Mar 9.9 20:48:14 10° NNW 20:53:14 13° N 20:58:12 10° NNE visible
06 Mar 9.3 23:01:21 10° NNW 23:08:38 28° NNE 23:08:38 28° NNE visible
07 Mar 9.6 01:13:27 10° NNW 01:16:23 21° NNW 01:16:23 21° NNW visible
07 Mar 9.9 20:10:51 10° NNW 20:15:34 12° N 20:20:16 10° NNE visible
07 Mar 9.4 22:25:26 10° NNW 22:33:45 24° NNE 22:33:45 24° NNE visible
08 Mar 9.4 00:37:21 10° NNW 00:41:29 26° NNW 00:41:29 26° NNW visible
08 Mar 9.9 19:32:45 10° NW 19:37:55 13° N 19:43:05 10° NNE visible
08 Mar 9.5 21:49:28 10° NNW 21:57:54 20° NNE 21:58:52 20° NE visible
